Location: Eurasberg
(48.3353°N, 11.0839°E)
Time: 20:20:53
(UTC+00:00)

Cosmos 2278 Rocket - Pass Details

Date: 18 January 2026
Orbit: 839 x 846 km, 71.0° (Epoch: 13 February)

Event Time Altitude Azimuth Distance (km) Brightness Sun altitude
Exits shadow 04:14:22 15° 189° (S) 2,092 4.2 -27.0°
Maximum altitude 04:18:55 61° 112° (ESE) 952 2.6 -26.2°
Drops below altitude 10° 04:24:29 10° 34° (NNE) 2,470 5.0 -25.3°
Sets 04:26:58 0° 31° (NNE) 3,410 5.7 -24.9°
